STARLINK-31294, 58949

Orbit data source: Space-Track

STARLINK-31294, 58949 is a payload satellite owned by SpaceX/Seattle (US) in LEO that was launched on Sat, 10 Feb 2024 UTC via an FALCON 9 launch vehicle from the Air Force Western Test Range (AFWTR). Payload-class satellites include a variety of spacecraft equipped with specific instruments for various scientific and technological missions. These include communications satellites like Starlink; space stations such as the ISS; scientific satellites like the Hubble; Earth observation satellites from companies like Planet Labs, Umbra, and HawkEye 360; GPS; miniature CubeSats for education and research; and military/defense satellites.

Loading next visibility...
Identifier
58949, 2024-027U
Orbit
LEO
Country
Flag of USUS
Related business
Manufacturer
SpaceX/Seattle
Mission
Operational Commercial Communications
Bus & Motor
STARLINK V2M, Unknown motor
Mass
730 kg wet, ~700 kg dry
Launch date (UTC)
2024-02-10 (2 years ago)
Launch vehicle
FALCON 9
Launch site
Air Force Western Test Range (AFWTR)
Object type
Payload
Rocket body
Debris
Shape & HBR
Box + 2 Pan, 17.7 m
Radar Cross Section
33.884 m², Large (>1 m²)

Expand to show TLE details & history
Last TLE update: 2 days ago

TLE from 2 days ago
0 STARLINK-31294
1 58949U 24027U   26171.42904086  .00004434  00000-0  16173-3 0  9996
2 58949  53.1581 192.7281 0001397  96.9823 263.1336 15.30202393133051
Epoch: 2026-06-20T10:17Z
TLE epoch observation values (Epoch: 2026-06-20T10:17:49.130Z)
Latitude
-0.00006°
Longitude
129.62955°
Altitude
476.222 km
Speed
7.629 km/s
True Right ascension
12h 50m 54s
True Declination
0° 00' 00"
Sunlit
Object was in daylight at epoch
Visualization orbit readout
Latitude
Unknown
Longitude
Unknown
Altitude
Unknown
Speed
Unknown
Apparent Right ascension
Unknown
Apparent Declination
Unknown
Sunlit
N/A
Visualization observer readout
Local Sidereal Time
23:09:16
Azimuth
Unknown
Elevation
Unknown
Doppler factor
Unknown
Orbital elements
Apogee altitude
476.422 km
Perigee altitude
474.507 km
Semi-major axis
6,853.602 km
Eccentricity
0.00014
Inclination
53.1581°
RAAN
192.7281°
Arg. of periapsis
96.9823°
True anomaly
263.11771°
Mean anomaly
263.1336°
Eccentric anomaly
263.12565°
Mean motion
3.82529 °/min
Orbital period
94.11 mins
BSTAR
0.00016173
Loading maneuver chart data...
Computing Atmospheric mass density...
Loading historical data...
Loading historical data...
Loading historical data...
Loading historical data...
Loading historical data...
Loading historical data...
Loading historical data...

Documentation

Showing up to 5 results
|